Location: Adrasan
(36.3319°N, 30.4314°E)
Time: 22:49:15
(UTC+00:00)

BlueWalker 3 - Visible Passes

Search period start: 15 April 2024 00:00
Search period end: 25 April 2024 00:00
Orbit: 485 x 496 km, 53.2° (Epoch: 15 April)

Date Brightness Start Highest point End Pass type
(mag) Time Alt. Az. Time Alt. Az. Time Alt. Az.
15 Apr 3.7 01:36:19 10° NNW 01:39:48 32° NE 01:43:16 10° ESE visible
15 Apr 3.5 18:33:45 10° SW 18:35:30 26° SW 18:35:30 26° SW visible
16 Apr 3.7 01:12:28 14° NNW 01:15:16 31° NE 01:18:42 10° E visible
16 Apr 2.8 02:50:09 10° WNW 02:53:26 28° SW 02:56:43 10° S visible
16 Apr 1.7 18:09:14 10° SW 18:13:02 86° SE 18:14:52 29° NE visible
16 Apr 5.2 19:49:21 10° WNW 19:49:29 10° WNW 19:49:29 10° WNW visible
17 Apr 3.7 00:50:33 30° NNE 00:50:44 30° NE 00:54:07 10° E visible
17 Apr 2.7 02:25:34 10° WNW 02:28:55 29° SW 02:32:15 10° S visible
17 Apr 1.8 17:44:42 10° SW 17:48:30 81° SE 17:52:20 10° NE visible
17 Apr 4.8 19:24:42 10° WNW 19:27:09 16° NNW 19:28:13 15° N visible
18 Apr 5.0 00:29:25 11° E 00:29:25 11° E 00:29:31 10° E visible
18 Apr 2.6 02:04:01 31° WSW 02:04:24 31° SW 02:07:46 10° SSE visible
18 Apr 1.8 17:20:09 10° SW 17:23:56 76° SE 17:27:46 10° NE visible
18 Apr 4.8 19:00:03 10° WNW 19:02:34 17° NNW 19:05:06 10° NNE visible
19 Apr 1.8 16:55:36 10° SW 16:59:22 72° SE 17:03:10 10° NE visible
19 Apr 4.8 18:35:22 10° WNW 18:37:58 17° NNW 18:40:35 10° NNE visible
20 Apr 4.7 18:10:40 10° WNW 18:13:21 18° NNW 18:16:02 10° NNE visible
21 Apr 4.7 17:45:58 10° WNW 17:48:43 19° NNW 17:51:28 10° NNE visible
22 Apr 4.7 17:21:16 10° WNW 17:24:04 19° NNW 17:26:53 10° NNE visible
